Regional Weather Roundup
Issued by NWS

Home | Current Version | Previous Version | Graphics & Text | Print | Product List | Glossary On
Versions: 1 2 3 4 5 6 7 8 9 10 11 12 13 14 15 16 17 18 19 20 21 22 23 24 25 26 27 28 29 30 31 32 33 34 35 36 37 38 39 40 41 42 43 44 45 46 47 48 49 50
000
ASUS43 KTOP 241559
RWRKS

WEATHER ROUNDUP FOR KANSAS
NATIONAL WEATHER SERVICE GOODLAND KS
1100 AM CDT MON JUL 24 2017

NOTE:  "FAIR" INDICATES FEW OR NO CLOUDS BELOW 12,000 FEET WITH NO
SIGNIFICANT WEATHER AND/OR OBSTRUCTIONS TO VISIBILITY.

KSZ001>006-013>018-027>032-041>047-241700-
NORTHWEST KANSAS

CITY           SKY/WX    TMP DP  RH WIND       PRES   REMARKS
GOODLAND       SUNNY     84  65  52 S14       30.06F
HAYS             N/A     88  66  48 VRB5      30.02F
HILL CITY      SUNNY     86  67  52 SE6       30.02F
RUSSELL        SUNNY     87  65  47 VRB3      30.00F
$$

KSZ061>065-074>080-084>089-241700-
SOUTHWEST KANSAS

CITY           SKY/WX    TMP DP  RH WIND       PRES   REMARKS
DODGE CITY     SUNNY     87  63  44 S7        30.05F
ELKHART          N/A     81  58  45 S5          N/A
GARDEN CITY    SUNNY     85  63  47 S9        30.05F
LIBERAL        SUNNY     84  65  52 VRB3      30.06
$$

KSZ066>073-081>083-090>101-241700-
SOUTHEAST KANSAS

CITY           SKY/WX    TMP DP  RH WIND       PRES   REMARKS
CHANUTE        SUNNY     88  72  58 CALM      30.00R
COFFEYVILLE    SUNNY     88  72  58 NE6       29.98S
HUTCHINSON     SUNNY     87  68  52 CALM      30.00S
MEDICINE LODGE   N/A     88  67  49 VRB5      29.99F
NEWTON         SUNNY     85  72  65 CALM      30.02S
PARSONS        SUNNY     88  72  58 VRB3      30.00S
WICHITA INTL   SUNNY     89  69  51 CALM      29.99S
WICHITA JABRA  SUNNY     88  69  53 VRB3      30.00S
WINFIELD       SUNNY     90  67  46 N6        30.00S
$$

KSZ007>012-019>026-033>040-048>060-102>105-241700-
NORTHEAST KANSAS

CITY           SKY/WX    TMP DP  RH WIND       PRES   REMARKS
CONCORDIA      SUNNY     81  69  67 SE7       30.01F
EMPORIA        SUNNY     85  71  63 VRB5      30.00F
LAWRENCE       SUNNY     81  69  67 E7        30.01S
MANHATTAN      SUNNY     84  69  60 E9        30.00S
OLATHE IND     SUNNY     82  67  60 E9        30.02F
OLATHE EXE     SUNNY     79  68  69 E8        30.02F
SALINA         SUNNY     88  71  57 E5        30.00F
TOPEKA BILLARD SUNNY     82  69  64 E9        30.01S
TOPEKA FORBES  SUNNY     83  68  60 SE10      30.01F
$$



USA.gov is the U.S. government's official web portal to all federal, state and local government web resources and services.